This is the latest recevied weather packets stored in our database for station/object AF5AA. If no packets are shown the sender has not sent any weather packets the latest 10 day(s).
| Time | Temp. | Humidity | Pressure | Rain* | Wind** | Luminosity | Snow |
|---|---|---|---|---|---|---|---|
| 1777848564 | 25.56° C | 43% | 1016.5 hPa | 0 mm | - | 26 W/m² | - |
| 1777848261 | 25.56° C | 42% | 1016.5 hPa | 0 mm | - | 24 W/m² | - |
| 1777847959 | 25.56° C | 46% | 1016.4 hPa | 0 mm | - | 44 W/m² | - |
| 1777847657 | 25.56° C | 51% | 1016.4 hPa | 0 mm | - | 74 W/m² | - |
| 1777847357 | 25.56° C | 42% | 1016.5 hPa | 0 mm | - | 32 W/m² | - |
| 1777847056 | 25.56° C | 40% | 1016.7 hPa | 0 mm | - | 28 W/m² | - |
| 1777846754 | 25.56° C | 40% | 1016.6 hPa | 0 mm | - | 27 W/m² | - |
| 1777846452 | 25.56° C | 44% | 1016.7 hPa | 0 mm | - | 38 W/m² | - |
| 1777846148 | 25.56° C | 41% | 1016.8 hPa | 0 mm | - | 29 W/m² | - |
| 1777845844 | 26.11° C | 38% | 1016.9 hPa | 0 mm | - | 29 W/m² | - |
| 1777845541 | 26.11° C | 39% | 1016.7 hPa | 0 mm | - | 31 W/m² | - |
| 1777845238 | 26.11° C | 38% | 1016.8 hPa | 0 mm | - | 36 W/m² | - |
| 1777844936 | 26.11° C | 40% | 1017 hPa | 0 mm | - | 33 W/m² | - |
| 1777844633 | 26.11° C | 38% | 1017.1 hPa | 0 mm | - | 70 W/m² | - |
| 1777844330 | 26.11° C | 39% | 1017.2 hPa | 0 mm | - | 49 W/m² | - |
| 1777844028 | 26.11° C | 40% | 1017.3 hPa | 0 mm | - | 61 W/m² | - |
| 1777843725 | 26.11° C | 39% | 1017.4 hPa | 0 mm | - | 135 W/m² | - |
| 1777843423 | 26.11° C | 39% | 1017.4 hPa | 0 mm | - | 68 W/m² | - |
| 1777843119 | 26.11° C | 37% | 1017.3 hPa | 0 mm | - | 252 W/m² | - |
| 1777842816 | 26.67° C | 39% | 1017.5 hPa | 0 mm | - | 58 W/m² | - |
| 1777842511 | 26.11° C | 39% | 1017.5 hPa | 0 mm | - | 117 W/m² | - |
| 1777842209 | 26.67° C | 41% | 1017.9 hPa | 0 mm | - | 55 W/m² | - |
| 1777841904 | 26.67° C | 38% | 1018 hPa | 0 mm | - | 54 W/m² | - |
| 1777841601 | 26.11° C | 41% | 1017.9 hPa | 0 mm | - | 551 W/m² | - |
| 1777841297 | 26.11° C | 40% | 1018 hPa | 0 mm | - | 67 W/m² | - |
* Rain latest hour (hover to see other rain measurements)
** Current wind speed in m/s (hover to see current wind gust speed)